Marrakech, Morocco

9:35 PM WET on December 16, 2017 (GMT +0000)
Marrakech

Weather History for GMMX - February, 2012

Change the Weather History Date:

Wednesday, February 15, 2012

  Actual Average Record
Temperature  
Mean Temperature 49 °F -  
Max Temperature 62 °F 70 °F 84 °F (2007)
Min Temperature 36 °F 48 °F 37 °F (1999)
Degree Days  
Heating Degree Days 16    
Moisture  
Dew Point 33 °F    
Average Humidity 57    
Maximum Humidity 93    
Minimum Humidity 20    
Precipitation  
Precipitation 0.00 in 0.05 in - ()
Sea Level Pressure  
Sea Level Pressure 30.13 in    
Wind  
Wind Speed 3 mph ()    
Max Wind Speed 9 mph    
Max Gust Speed -    
Visibility 5.3 miles    
Events      
Averages and records for this station are not official NWS values.
T = Trace of Precipitation, MM = Missing Value Source: Averaged Metar Reports

Daily Weather History Graph

Daily Weather History Graph

Search for Another Location

Airport or City:

Trip Planner

Search our weather history database for the weather conditions in past years. The results will help you decide how hot, cold, wet, or windy it might be!

Date:

Astronomy

Feb. 15, 2012 Rise Set
Actual Time 7:14 AM WET 6:18 PM WET
Civil Twilight 6:49 AM WET 6:43 PM WET
Nautical Twilight 6:21 AM WET 7:11 PM WET
Astronomical Twilight 5:52 AM WET 7:40 PM WET
Moon 1:42 AM WET (2/15) 12:12 PM WET (2/15)
Length of Visible Light 11h 53m
Length of Day
11h 03m
Last Quarter, 41% of the Moon is Illuminated
Feb 15
Last Quarter
Feb 21
New
Mar 1
First Quarter
Mar 8
Full
Mar 15
Last Quarter

Hourly Weather History & Observations

Time (WET) Temp. Windchill Dew Point Humidity Pressure Visibility Wind Dir Wind Speed Gust Speed Precip Events Conditions
12:00 AM 45 °F - 39 °F 71% 30.20 in 5 mi NE 3.5 mph - -   Scattered Clouds
12:00 AM 44.6 °F 43.1 °F 39.2 °F 81% 30.15 in 5.0 mi NE 3.5 mph - N/A   Unknown
12:30 AM 44.6 °F - 39.2 °F 81% 30.15 in 5.0 mi North 2.3 mph - N/A   Unknown
1:00 AM 41.0 °F 39.0 °F 35.6 °F 81% 30.15 in 3.7 mi West 3.5 mph - N/A   Unknown
1:30 AM 39.2 °F 37.0 °F 35.6 °F 87% 30.15 in 3.7 mi WSW 3.5 mph - N/A   Unknown
2:00 AM 41.0 °F 39.0 °F 37.4 °F 87% 30.15 in 5.0 mi West 3.5 mph - N/A   Unknown
2:30 AM 41.0 °F - 37.4 °F 87% 30.15 in 5.6 mi SW 2.3 mph - N/A   Unknown
3:00 AM 40 °F - 37 °F 87% 30.22 in 6 mi SSW 3.5 mph - -   Scattered Clouds
3:00 AM 39.2 °F 37.0 °F 37.4 °F 93% 30.15 in 5.6 mi SW 3.5 mph - N/A   Unknown
3:30 AM 41.0 °F - 35.6 °F 81% 30.15 in - Calm Calm - N/A   Clear
4:00 AM 41.0 °F 38.0 °F 37.4 °F 87% 30.15 in - South 4.6 mph - N/A   Clear
4:30 AM 41.0 °F 39.0 °F 35.6 °F 81% 30.15 in - SSE 3.5 mph - N/A   Clear
5:00 AM 39.2 °F - 33.8 °F 81% 30.15 in - Variable 2.3 mph - N/A   Clear
5:30 AM 41.0 °F 39.0 °F 35.6 °F 81% 30.12 in 5.6 mi South 3.5 mph - N/A   Unknown
6:00 AM 40 °F - 35 °F 75% 30.18 in 5 mi South 3.5 mph - -   Scattered Clouds
6:00 AM 41.0 °F 38.0 °F 35.6 °F 81% 30.12 in 5.0 mi South 4.6 mph - N/A   Unknown
6:30 AM 39.2 °F 37.0 °F 35.6 °F 87% 30.12 in 4.3 mi South 3.5 mph - N/A   Unknown
7:00 AM 37.4 °F - 33.8 °F 87% 30.12 in 3.7 mi North 2.3 mph - N/A   Unknown
7:30 AM 37.4 °F - 33.8 °F 87% 30.12 in 3.1 mi Variable 2.3 mph - N/A   Unknown
8:00 AM 37.4 °F 34.9 °F 33.8 °F 87% 30.15 in - NE 3.5 mph - N/A   Unknown
9:00 AM 43 °F - 35 °F 65% 30.20 in 3 mi East 3.5 mph - -  
9:00 AM 42.8 °F 41.1 °F 35.6 °F 76% 30.15 in 3.1 mi East 3.5 mph - N/A   Unknown
9:30 AM 46.4 °F 45.2 °F 35.6 °F 66% 30.15 in 3.7 mi East 3.5 mph - N/A   Unknown
10:00 AM 48.2 °F - 35.6 °F 62% 30.15 in 3.7 mi SE 5.8 mph - N/A   Unknown
10:30 AM 50.0 °F - 35.6 °F 58% 30.15 in 5.6 mi East 5.8 mph - N/A   Unknown
11:00 AM 53.6 °F - 35.6 °F 51% 30.18 in - NNE 9.2 mph - N/A   Clear
11:30 AM 53.6 °F - 33.8 °F 47% 30.15 in - NNE 6.9 mph - N/A   Clear
12:00 PM 55.4 °F - 35.6 °F 47% 30.15 in - NNE 6.9 mph - N/A   Clear
12:30 PM 55.4 °F - 35.6 °F 47% 30.15 in - NNE 5.8 mph - N/A   Clear
1:00 PM 57.2 °F - 32.0 °F 38% 30.12 in - Variable 6.9 mph - N/A   Clear
1:30 PM 59.0 °F - 32.0 °F 36% 30.09 in - NNE 5.8 mph - N/A   Clear
2:00 PM 59.0 °F - 32.0 °F 36% 30.09 in 6.2 mi East 3.5 mph - N/A   Partly Cloudy
2:30 PM 60.8 °F - 32.0 °F 34% 30.09 in 6.2 mi Variable 3.5 mph - N/A   Partly Cloudy
3:00 PM 62 °F - 31 °F 20% 30.06 in 6 mi SE 3.5 mph - -   Scattered Clouds
3:00 PM 62.6 °F - 30.2 °F 30% 30.06 in 6.2 mi Variable 2.3 mph - N/A   Partly Cloudy
3:30 PM 62.6 °F - 32.0 °F 32% 30.06 in 6.2 mi NW 5.8 mph - N/A   Partly Cloudy
4:00 PM 62.6 °F - 30.2 °F 30% 30.06 in 6.2 mi NNE 5.8 mph - N/A   Partly Cloudy
4:30 PM 62.6 °F - 30.2 °F 30% 30.06 in 6.2 mi Variable 3.5 mph - N/A   Partly Cloudy
5:00 PM 62.6 °F - 28.4 °F 27% 30.06 in 6.2 mi Variable 2.3 mph - N/A   Partly Cloudy
5:30 PM 62.6 °F - 28.4 °F 27% 30.06 in 6.2 mi Variable 2.3 mph - N/A   Partly Cloudy
6:00 PM 60.8 °F - 28.4 °F 29% 30.06 in 6.2 mi NW 3.5 mph - N/A   Partly Cloudy
6:30 PM 59.0 °F - 26.6 °F 29% 30.09 in 6.2 mi NNW 3.5 mph - N/A   Partly Cloudy
7:00 PM 59.0 °F - 26.6 °F 29% 30.09 in 6.2 mi NNW 4.6 mph - N/A   Partly Cloudy
7:30 PM 57.2 °F - 26.6 °F 31% 30.09 in 5.0 mi North 3.5 mph - N/A   Partly Cloudy
8:00 PM 55.4 °F - 28.4 °F 36% 30.09 in 5.6 mi NNE 4.6 mph - N/A   Partly Cloudy
8:30 PM 53.6 °F - 28.4 °F 38% 30.12 in 6.2 mi NE 4.6 mph - N/A   Partly Cloudy
9:00 PM 51.8 °F - 28.4 °F 41% 30.12 in 6.2 mi NE 5.8 mph - N/A   Partly Cloudy
9:30 PM 51.8 °F - 28.4 °F 41% 30.12 in 6.2 mi East 4.6 mph - N/A   Partly Cloudy
10:00 PM 50.0 °F - 28.4 °F 43% 30.12 in 6.2 mi East 5.8 mph - N/A   Partly Cloudy
10:30 PM 48.2 °F - 28.4 °F 46% 30.12 in 6.2 mi East 3.5 mph - N/A   Partly Cloudy
11:00 PM 50.0 °F - 30.2 °F 47% 30.15 in 6.2 mi North 3.5 mph - N/A   Partly Cloudy
11:30 PM 48.2 °F - 28.4 °F 46% 30.15 in 6.2 mi NNE 3.5 mph - N/A   Unknown